Temperature
13 13 12 12 12 12 12 12 12 12 12 11 11 11 11 11 11 11 11 11 11 11 11 11 11 11 11 11 11 11 11 11 11 11 11 11 11 11 11 11 11 11 11
12 12 12 12 12 12 12 12 11 11 11 11 11 11 11 11 11 11 11 10 10 10 10 10 10 10 10 10 10 10 10 10 10 10 10 10 11 11 11 11 11 11 11
12 12 12 12 12 12 11 11 11 11 11 11 11 10 10 10 10 10 10 10 10 10 10 10 10 10 10 9 9 9 9 10 10 10 10 10 10 10 10 10 10 10 10
12 12 12 12 11 11 11 11 11 10 10 10 10 10 10 10 10 10 10 10 10 9 9 9 9 9 9 9 9 9 9 9 9 9 9 9 9 9 9 9 9 9 9
11 11 11 11 11 11 11 11 10 10 10 10 10 10 10 9 9 9 9 9 9 9 9 9 9 9 9 9 8 8 8 8 8 8 8 8 8 8 8 8 8 8 9
11 11 11 11 11 11 10 10 10 10 10 10 9 9 9 9 9 9 9 9 9 8 8 8 8 8 8 8 8 8 8 8 8 8 8 8 8 8 7 7 8 8 8
11 10 10 10 10 10 10 10 10 10 9 9 9 9 9 9 8 8 8 8 8 8 8 8 8 8 7 7 7 7 7 7 7 7 7 7 7 7 7 7 7 7 7
10 10 10 10 10 10 10 9 9 9 9 9 9 8 8 8 8 8 8 8 7 7 7 7 7 7 7 7 7 7 7 7 6 6 6 6 6 6 6 6 6 6 6
9 9 9 9 9 9 9 9 9 9 9 8 8 8 7 7 7 7 7 7 7 7 7 7 6 6 6 6 6 6 6 6 6 6 5 5 5 5 5 5 5 5 5
9 9 9 9 9 9 9 9 8 8 8 8 8 7 7 7 6 6 6 7 6 6 6 6 6 6 6 6 6 6 6 5 5 5 5 5 4 4 5 5 5 5 5
9 9 9 9 8 8 8 8 8 8 8 8 7 7 7 7 6 6 6 6 6 6 6 6 6 6 5 5 5 5 5 5 5 4 4 4 4 4 4 4 4 4 4
8 8 8 8 8 8 8 8 8 7 7 7 7 7 6 6 6 5 5 5 5 6 6 5 5 5 5 5 5 4 4 4 4 4 4 4 4 4 4 4 4 4 4
8 8 8 8 8 8 7 7 7 7 7 7 6 6 6 6 5 5 4 4 4 5 5 5 5 5 4 4 4 4 4 4 4 4 3 3 3 3 3 3 3 3 3
8 7 7 7 7 7 7 7 7 7 6 6 6 6 6 5 5 5 4 4 3 4 4 4 4 4 4 3 3 3 3 3 3 3 3 3 3 3 3 3 3 3 3
7 7 7 7 7 7 6 6 6 6 6 6 6 5 5 5 5 4 4 3 3 2 3 3 4 4 3 3 3 2 2 2 2 2 2 2 2 2 2 2 2 2 2
7 7 6 6 6 6 6 6 6 6 5 5 5 5 5 4 4 4 4 3 3 2 2 3 3 3 3 3 2 2 2 2 2 2 2 2 2 2 1 1 1 1 1
6 6 6 6 6 5 5 5 5 5 5 5 5 4 4 4 4 4 3 3 3 2 2 2 2 2 2 2 2 2 2 1 1 1 1 1 1 1 1 1 1 1 1
6 6 5 5 5 5 5 5 5 5 4 4 4 4 4 4 3 3 3 3 2 2 2 2 2 2 2 2 1 1 1 1 1 1 1 0 0 0 0 0 0 0 -0
5 5 5 5 5 5 4 4 4 4 4 4 4 3 3 3 3 3 2 2 2 2 1 1 1 1 1 1 1 1 1 1 0 0 0 -0 -0 -0 -0 -0 -1 -1 -1
5 5 5 4 4 4 4 4 4 3 3 3 3 3 3 3 2 2 2 2 1 1 1 0 0 0 0 0 -0 -0 0 0 -0 -0 -0 -1 -1 -1 -1 -1 -1 -1 -1
5 4 4 4 4 4 3 3 3 3 3 3 3 3 2 2 2 2 1 1 1 0 0 -0 -0 -0 -0 -1 -1 -1 -1 -1 -1 -1 -1 -1 -1 -1 -1 -2 -2 -2 -2
4 4 4 4 3 3 3 3 2 2 2 2 2 2 2 2 1 1 1 0 0 -0 -1 -1 -1 -1 -1 -1 -2 -2 -2 -2 -2 -2 -2 -2 -2 -2 -2 -2 -2 -2 -3
4 4 3 3 3 3 2 2 2 2 2 2 2 1 1 1 1 1 0 0 -0 -1 -1 -2 -2 -2 -2 -2 -2 -2 -3 -3 -3 -3 -3 -3 -2 -2 -2 -3 -3 -3 -3
3 3 3 3 2 2 2 2 2 1 1 1 1 1 1 1 0 -0 -1 -1 -1 -1 -1 -2 -2 -2 -2 -2 -3 -3 -3 -4 -4 -4 -4 -4 -3 -3 -3 -3 -3 -3 -4
3 3 3 2 2 2 2 1 1 1 1 1 1 1 0 -0 -0 -1 -1 -1 -1 -1 -2 -2 -2 -2 -3 -3 -3 -4 -4 -4 -4 -4 -4 -5 -4 -4 -4 -4 -4 -4 -4
3 2 2 2 2 2 1 1 1 0 0 0 0 0 -0 -1 -1 -2 -2 -2 -2 -2 -2 -3 -3 -3 -3 -3 -3 -4 -4 -5 -5 -5 -5 -5 -5 -5 -5 -4 -4 -5 -5
Wind_Speed
4 4 4 5 5 5 5 4 5 5 6 6 7 7 6 7 7 7 7 8 9 9 9 9 9 9 9 9 9 9 9 9 8 8 8 9 9 9 9 9 9 9 9
5 4 4 4 4 4 4 4 4 4 4 4 5 6 6 6 6 7 7 7 8 9 9 9 9 10 10 10 9 10 10 9 9 8 8 8 9 9 9 10 10 10 9
6 5 3 2 3 4 5 5 5 5 3 4 3 4 4 5 5 6 6 6 6 7 9 10 10 10 10 10 10 9 9 9 9 9 9 8 8 9 9 9 9 10 10
7 5 3 2 3 4 4 3 2 3 3 3 2 2 2 3 4 4 5 5 5 6 7 9 9 10 10 10 9 9 8 8 8 8 9 9 9 9 9 9 10 10 10
6 6 3 3 4 4 3 2 2 2 2 2 2 1 2 2 2 3 4 4 5 5 5 6 8 9 9 9 9 9 9 8 9 9 9 9 9 9 9 10 10 10 10
5 5 4 3 4 3 2 2 2 2 2 1 2 2 2 1 2 2 2 3 4 4 5 5 6 6 8 9 9 10 9 9 9 9 9 9 9 10 10 10 10 10 10
5 4 3 3 3 3 2 2 2 3 2 2 2 3 3 3 2 1 1 2 2 3 4 4 4 5 6 7 9 9 10 10 9 9 9 9 9 10 10 10 10 10 10
4 3 3 2 3 3 3 2 2 2 1 2 2 2 2 3 3 2 2 1 1 2 3 3 3 3 4 5 7 8 9 10 10 10 10 10 10 11 11 11 10 10 11
4 4 4 3 3 3 2 1 2 3 1 1 1 2 2 1 2 3 2 1 1 1 2 2 2 3 3 4 6 7 8 9 9 10 10 10 10 11 11 11 11 11 11
3 3 4 4 3 2 2 1 1 2 3 1 0 1 1 2 1 2 3 2 2 2 3 2 3 4 4 4 5 7 8 9 9 10 10 10 11 11 11 11 11 11 11
2 3 4 4 3 2 2 1 1 2 2 2 2 1 1 1 1 2 3 3 3 3 3 3 3 4 5 5 5 7 8 9 10 10 10 11 11 11 12 12 12 12 12
1 2 3 3 3 2 2 2 2 2 2 2 2 2 2 2 2 2 3 3 4 3 3 3 2 3 5 5 5 7 8 9 10 11 11 11 11 11 12 13 13 13 13
1 2 2 2 2 2 3 2 2 2 2 2 2 2 2 3 3 2 2 3 3 3 3 2 3 4 4 5 6 8 8 10 11 11 12 12 12 12 12 13 13 13 13
3 2 3 3 2 2 2 2 1 2 2 2 3 3 2 2 2 3 3 2 3 3 2 4 3 4 4 5 8 9 8 10 11 12 12 12 12 12 12 12 13 13 13
2 2 2 2 2 2 2 2 2 2 2 2 3 3 2 2 2 3 3 3 3 4 4 4 3 3 4 6 9 9 9 11 12 12 12 12 12 12 13 13 13 13 13
2 2 2 2 2 2 2 2 2 2 2 2 2 3 3 2 2 2 3 3 4 5 5 4 4 4 4 7 10 10 10 12 13 13 13 13 13 13 13 13 13 13 13
2 2 2 2 2 2 2 2 3 3 3 3 3 3 4 3 3 3 3 3 4 4 7 6 4 4 4 6 8 9 10 10 11 13 14 14 13 13 13 14 14 13 14
3 3 2 2 3 3 3 3 4 4 4 4 4 4 4 3 4 3 3 4 4 5 6 9 6 4 5 5 6 6 7 9 10 13 14 15 14 14 14 15 14 14 14
2 2 2 3 3 3 3 4 4 4 5 5 5 5 5 5 5 4 5 5 5 5 5 6 8 5 4 4 5 5 6 6 9 11 13 14 14 15 15 15 14 14 13
3 3 3 3 3 3 4 4 4 4 5 5 5 6 6 6 7 6 5 6 5 5 5 6 7 6 5 5 4 5 6 4 6 7 11 12 13 15 15 15 15 14 14
4 4 3 3 3 3 4 4 4 5 5 5 5 6 6 8 9 8 6 6 5 5 5 6 7 7 6 5 5 4 6 6 6 5 5 6 7 7 10 13 14 14 14
3 3 3 3 3 4 6 7 5 5 5 6 6 6 6 8 10 12 13 12 10 8 7 7 7 8 9 7 6 5 6 6 6 3 3 5 4 6 7 9 14 15 15
3 3 4 4 5 6 8 8 9 5 5 6 6 6 6 7 9 6 10 13 13 15 14 10 10 10 9 7 6 7 7 7 8 4 3 6 4 6 7 11 15 15 14
3 4 4 5 5 6 8 9 10 5 5 6 6 7 7 7 7 8 7 7 8 9 11 9 9 10 9 8 8 8 9 8 7 5 4 6 5 5 6 7 13 14 14
3 4 4 4 5 7 9 10 9 4 4 6 6 6 7 7 12 14 9 8 9 9 12 15 16 15 17 16 12 6 5 6 8 6 4 4 4 4 4 5 8 11 12
4 4 4 5 5 6 9 10 9 3 4 5 5 6 10 11 13 14 8 7 10 10 8 9 10 12 11 12 14 8 6 7 7 6 4 4 3 2 4 3 3 5 6
Wind_Direction
106 93 81 76 70 64 60 50 51 54 54 56 61 67 65 64 62 57 50 48 45 42 42 42 44 45 46 44 43 42 43 42 38 36 32 26 20 13 8 3 356 348 343
115 105 88 72 68 69 71 69 67 65 61 61 57 62 67 66 65 59 55 49 48 46 44 43 43 42 42 43 42 43 41 37 33 30 27 21 13 6 0 358 355 353 348
117 112 100 82 68 77 75 67 61 62 60 56 53 56 69 67 67 63 61 60 53 46 44 42 40 38 36 37 37 37 37 36 32 30 26 21 13 6 0 354 350 348 346
123 113 107 98 85 78 71 75 72 65 54 49 36 27 52 63 64 65 67 68 64 53 45 43 39 35 30 26 25 25 25 26 23 19 16 14 8 2 357 351 347 344 342
124 116 109 95 96 79 68 82 75 80 64 39 24 33 27 40 55 67 69 70 70 67 55 46 41 35 28 21 16 13 14 14 12 6 3 3 1 356 353 351 351 348 345
119 121 115 97 94 88 70 78 84 69 80 46 35 29 8 4 44 64 75 69 66 65 61 53 40 29 24 18 13 9 6 3 1 356 356 355 355 354 350 348 348 346 346
123 120 122 108 98 99 91 91 98 74 43 34 53 23 6 13 31 29 57 66 54 51 54 47 37 25 12 9 6 4 1 357 354 352 349 349 349 348 345 344 342 341 338
139 130 119 119 111 104 85 76 94 96 42 41 82 78 12 352 359 9 357 22 35 34 33 21 19 11 2 357 351 353 352 350 347 346 346 346 344 342 342 340 340 341 341
151 140 130 121 116 120 126 118 123 130 133 18 75 127 133 242 307 323 332 347 347 346 337 328 336 333 337 342 336 335 339 341 340 340 339 338 336 335 335 335 336 336 335
156 154 144 138 132 127 139 154 130 142 146 156 26 56 153 164 178 306 317 321 320 301 295 308 305 303 309 319 320 322 326 329 330 331 330 330 330 330 329 330 329 329 328
162 164 155 145 141 143 155 153 132 141 156 166 170 158 85 77 156 190 272 304 318 298 289 281 277 280 290 300 310 318 323 322 323 323 324 324 325 326 326 326 325 325 325
167 170 152 150 156 160 169 176 173 168 174 171 173 177 180 190 197 194 237 269 286 287 287 276 262 262 278 292 302 318 321 319 317 316 315 317 319 322 323 322 322 323 322
196 203 165 162 165 179 183 174 175 193 195 187 192 201 204 213 202 198 223 261 280 288 287 283 259 263 275 288 298 310 312 313 313 311 309 311 314 317 318 318 317 317 318
206 195 181 179 179 177 183 176 187 208 201 206 213 211 216 232 213 205 203 225 286 292 277 269 280 253 266 286 295 301 301 305 307 306 306 308 310 310 309 310 311 312 313
198 182 177 180 188 181 185 178 205 225 216 218 224 224 230 240 229 226 214 204 213 268 281 261 265 264 271 285 292 292 289 294 298 299 300 302 302 302 302 302 304 306 308
191 180 187 200 214 203 193 189 212 228 227 240 226 231 244 249 248 238 229 227 217 231 263 257 250 263 277 286 288 286 283 290 292 293 294 296 296 296 296 297 298 301 303
193 196 201 203 213 220 209 204 224 228 233 248 246 238 248 247 247 249 239 235 235 228 259 276 258 261 264 271 285 282 280 280 283 287 290 292 293 293 295 294 293 295 297
205 204 202 208 220 226 220 215 228 232 232 242 249 247 254 255 250 249 241 243 244 234 244 273 281 271 260 261 266 273 281 279 277 283 286 287 288 291 292 291 290 291 293
209 213 207 217 229 233 232 231 230 236 237 240 241 243 251 250 258 257 249 250 252 255 242 259 277 274 268 267 272 274 272 274 278 282 285 286 287 290 291 290 289 290 292
208 218 223 227 232 236 238 241 239 242 244 246 244 243 245 242 248 253 257 252 253 255 252 258 272 277 272 266 261 272 282 270 273 280 281 282 285 288 289 288 288 288 289
216 218 222 234 238 238 239 242 241 242 245 252 253 249 248 252 257 260 262 254 248 254 259 264 271 278 276 270 265 261 274 283 273 259 269 274 281 284 286 285 286 286 284
218 215 224 234 246 253 270 269 267 249 248 248 257 260 260 264 269 275 276 272 262 257 257 261 266 266 271 265 265 262 269 282 284 249 248 271 258 266 274 274 279 282 279
215 225 235 238 247 259 274 276 273 265 248 248 251 258 270 270 277 267 275 279 276 273 269 263 261 262 265 260 259 265 260 260 264 253 251 274 260 265 272 276 279 278 277
219 228 236 240 247 262 276 280 279 266 251 251 250 250 257 266 267 271 266 269 268 269 270 269 258 259 257 253 246 255 261 265 264 252 228 263 265 263 275 277 278 277 278
230 233 239 240 247 267 279 282 282 259 255 259 256 252 256 261 275 281 278 273 278 277 278 274 271 270 269 270 267 264 259 267 276 267 219 238 260 269 271 268 274 280 283
232 240 251 247 247 259 276 282 281 254 258 268 269 262 269 273 278 282 274 266 275 280 276 278 277 276 272 270 269 255 244 256 270 270 223 219 247 269 284 265 262 282 289
Height
1535 1535 1535 1536 1536 1536 1536 1536 1536 1536 1536 1535 1535 1535 1534 1534 1534 1533 1533 1533 1532 1532 1531 1530 1530 1529 1528 1527 1527 1526 1525 1524 1524 1523 1522 1522 1522 1521 1521 1521 1520 1519 1519
1534 1534 1534 1535 1535 1535 1535 1535 1535 1535 1535 1535 1534 1534 1534 1533 1533 1533 1532 1532 1532 1531 1530 1530 1529 1528 1527 1526 1526 1525 1524 1523 1522 1521 1521 1520 1519 1519 1518 1518 1517 1517 1516
1533 1533 1534 1534 1534 1535 1535 1535 1535 1535 1534 1534 1534 1534 1533 1533 1532 1532 1531 1531 1531 1530 1530 1529 1528 1527 1526 1526 1525 1524 1523 1522 1521 1520 1519 1518 1517 1516 1515 1515 1514 1514 1513
1531 1532 1533 1533 1533 1534 1534 1534 1534 1534 1533 1533 1533 1533 1532 1532 1531 1531 1531 1530 1530 1529 1529 1528 1527 1526 1525 1524 1523 1522 1521 1520 1519 1518 1517 1516 1515 1514 1513 1512 1511 1511 1510
1530 1530 1531 1532 1532 1532 1532 1532 1532 1532 1532 1532 1532 1531 1531 1531 1530 1530 1530 1529 1529 1528 1527 1527 1526 1525 1524 1523 1522 1521 1520 1518 1517 1516 1515 1514 1513 1512 1511 1510 1508 1507 1507
1529 1529 1529 1530 1530 1531 1531 1531 1531 1531 1531 1530 1530 1530 1530 1529 1529 1529 1529 1528 1528 1527 1526 1525 1524 1523 1522 1521 1520 1519 1518 1517 1515 1514 1513 1512 1510 1509 1508 1507 1505 1504 1503
1527 1528 1528 1528 1529 1529 1529 1529 1529 1529 1529 1529 1529 1528 1528 1528 1528 1528 1527 1527 1526 1526 1525 1524 1522 1521 1520 1519 1518 1517 1516 1514 1513 1512 1510 1509 1508 1506 1505 1504 1503 1501 1500
1526 1526 1526 1526 1527 1527 1528 1528 1528 1527 1527 1527 1527 1527 1526 1527 1526 1526 1526 1525 1525 1524 1523 1522 1521 1519 1518 1517 1516 1514 1513 1512 1510 1509 1508 1506 1505 1504 1502 1501 1499 1498 1497
1524 1525 1524 1524 1525 1525 1526 1526 1526 1526 1526 1526 1526 1526 1525 1524 1524 1524 1523 1523 1522 1522 1521 1520 1519 1517 1516 1514 1513 1512 1510 1509 1507 1506 1505 1503 1502 1501 1499 1498 1496 1495 1493
1522 1522 1522 1523 1523 1523 1523 1524 1524 1524 1524 1523 1524 1524 1524 1523 1523 1521 1521 1521 1520 1519 1518 1517 1516 1515 1513 1512 1510 1508 1507 1505 1504 1503 1501 1500 1498 1497 1496 1494 1493 1491 1490
1520 1520 1520 1520 1520 1521 1521 1521 1521 1521 1521 1521 1521 1521 1521 1521 1520 1519 1517 1517 1516 1516 1515 1514 1513 1512 1510 1508 1507 1505 1504 1502 1500 1499 1498 1496 1495 1493 1492 1490 1489 1487 1486
1517 1518 1518 1518 1518 1518 1519 1519 1519 1518 1518 1518 1518 1518 1518 1518 1517 1516 1515 1513 1512 1511 1511 1511 1510 1508 1507 1505 1504 1502 1500 1499 1497 1495 1494 1492 1491 1489 1487 1486 1484 1483 1481
1514 1515 1515 1515 1515 1515 1516 1516 1516 1516 1516 1515 1515 1515 1515 1515 1515 1514 1512 1510 1508 1507 1506 1506 1506 1505 1503 1502 1500 1498 1496 1495 1493 1491 1490 1488 1487 1485 1483 1481 1479 1478 1477
1512 1512 1512 1512 1512 1512 1513 1512 1512 1512 1512 1512 1512 1512 1512 1512 1511 1510 1509 1508 1505 1503 1501 1501 1501 1500 1499 1498 1496 1494 1492 1490 1489 1487 1485 1483 1482 1480 1478 1476 1475 1473 1471
1509 1509 1509 1509 1509 1509 1509 1509 1509 1509 1509 1509 1508 1508 1508 1508 1507 1506 1506 1505 1504 1500 1496 1496 1496 1496 1495 1493 1491 1489 1487 1486 1484 1482 1480 1478 1477 1475 1473 1471 1470 1468 1466
1506 1506 1506 1506 1506 1506 1506 1506 1505 1505 1505 1505 1505 1504 1504 1504 1503 1502 1501 1501 1499 1497 1493 1491 1491 1491 1489 1488 1486 1484 1482 1480 1479 1477 1475 1473 1471 1470 1468 1466 1464 1463 1461
1503 1503 1503 1503 1503 1502 1502 1502 1502 1501 1501 1501 1501 1500 1500 1499 1499 1498 1497 1496 1495 1493 1489 1485 1486 1485 1484 1482 1481 1479 1477 1475 1473 1471 1469 1468 1466 1464 1462 1461 1459 1457 1456
1499 1499 1499 1499 1499 1499 1498 1498 1498 1497 1497 1497 1497 1496 1495 1495 1494 1493 1492 1491 1489 1488 1485 1481 1479 1479 1478 1477 1475 1473 1471 1469 1467 1465 1464 1462 1460 1458 1456 1455 1453 1452 1450
1495 1495 1495 1495 1495 1495 1495 1494 1493 1493 1493 1492 1492 1491 1490 1489 1488 1488 1486 1485 1484 1482 1480 1477 1473 1473 1471 1470 1468 1466 1465 1463 1461 1459 1457 1455 1454 1452 1450 1449 1447 1445 1444
1491 1491 1491 1491 1491 1491 1490 1490 1489 1489 1488 1488 1487 1486 1485 1484 1483 1482 1480 1479 1478 1476 1474 1471 1468 1466 1465 1464 1462 1460 1457 1456 1454 1453 1451 1449 1448 1446 1444 1443 1441 1439 1438
1487 1487 1487 1487 1487 1486 1486 1485 1484 1484 1483 1482 1482 1481 1480 1479 1478 1476 1475 1473 1472 1470 1468 1465 1463 1461 1459 1458 1456 1454 1451 1449 1447 1446 1444 1443 1441 1439 1438 1436 1435 1433 1431
1483 1483 1482 1482 1482 1482 1481 1481 1480 1479 1478 1477 1476 1475 1475 1473 1472 1470 1469 1467 1466 1464 1461 1459 1457 1455 1453 1452 1450 1448 1446 1443 1440 1439 1437 1435 1435 1432 1431 1430 1428 1427 1425
1478 1478 1478 1478 1478 1477 1477 1476 1475 1475 1473 1472 1471 1470 1468 1467 1466 1464 1462 1461 1459 1457 1456 1454 1451 1448 1447 1445 1444 1441 1440 1437 1434 1433 1431 1428 1427 1425 1425 1423 1422 1420 1419
1474 1474 1473 1473 1473 1473 1472 1471 1470 1469 1468 1467 1466 1464 1462 1461 1459 1457 1455 1453 1451 1450 1449 1447 1444 1442 1440 1439 1437 1435 1433 1430 1428 1427 1425 1422 1420 1419 1417 1416 1415 1414 1413
1470 1469 1469 1468 1468 1467 1467 1466 1465 1463 1462 1461 1459 1458 1456 1454 1453 1451 1449 1446 1444 1442 1441 1439 1437 1435 1433 1432 1431 1429 1426 1424 1420 1419 1419 1416 1413 1412 1410 1409 1409 1408 1407
1465 1465 1464 1464 1463 1462 1461 1460 1459 1457 1455 1454 1453 1452 1450 1448 1446 1444 1442 1440 1437 1434 1433 1430 1429 1427 1426 1424 1423 1422 1420 1418 1415 1412 1411 1411 1408 1407 1404 1402 1402 1402 1401